FW9766 Weather Reports


Display with metric or nautical units.
time (UTC)temp
F
wind
direction
speed
MPH
gust
MPH
rain 1hr
in
rain 24hr
in
rain mn
in
humidity
%
barometer
mb
20260506031550 74 0 1.0 4.0 0.00 0.00 0.00 87 1009.4
20260506030114 74 0 0.0 2.0 0.00 0.00 0.00 86 1009.2
20260506024548 74 0 0.0 2.0 0.00 0.00 0.00 86 1008.8
20260506023048 75 0 0.0 2.0 0.00 0.00 0.00 85 1008.7
20260506021553 75 0 0.0 7.0 0.00 0.00 0.00 84 1008.6
20260506020048 76 0 0.0 0.0 0.00 0.00 0.00 83 1008.3
20260506014547 77 0 0.0 1.0 0.00 0.00 0.00 81 1008.1
20260506013048 78 0 0.0 2.0 0.00 0.00 0.00 79 1008.0
20260506011550 79 0 0.0 4.0 0.00 0.00 0.00 78 1007.5
20260506010053 80 91 0.0 5.0 0.00 0.00 0.00 76 1007.4
20260506004548 81 25 2.0 8.0 0.00 0.00 0.00 74 1007.4
20260506003048 82 75 3.0 8.0 0.00 0.00 0.00 73 1007.6
20260506001551 83 80 3.0 8.0 0.00 0.00 0.00 72 1007.6
20260506000049 83 89 2.0 8.0 0.00 0.00 0.00 71 1007.6
20260505234606 83 78 4.0 8.0 0.00 0.00 0.00 68 1007.5
20260505233048 84 121 3.0 9.0 0.00 0.00 0.00 69 1007.6
20260505231542 84 90 4.0 10.0 0.00 0.00 0.00 68 1007.5
20260505230049 84 95 3.0 10.0 0.00 0.00 0.00 68 1007.4
20260505224548 83 62 3.0 8.0 0.00 0.00 0.00 70 1007.5
20260505223102 83 103 4.0 10.0 0.00 0.00 0.00 70 1007.6
20260505221545 83 131 2.0 10.0 0.00 0.00 0.00 70 1007.6
20260505220049 83 96 5.0 11.0 0.00 0.00 0.00 68 1007.6
20260505214553 84 132 5.0 10.0 0.00 0.00 0.00 68 1007.8
20260505213048 84 129 7.0 16.0 0.00 0.00 0.00 67 1007.9
20260505211556 84 111 3.0 12.0 0.00 0.00 0.00 69 1007.9
20260505210047 84 114 5.0 14.0 0.00 0.00 0.00 68 1008.1
20260505204546 84 127 6.0 14.0 0.00 0.00 0.00 69 1008.3
20260505203100 84 111 5.0 13.0 0.00 0.00 0.00 71 1008.4
20260505201540 83 99 6.0 11.0 0.00 0.00 0.00 70 1008.5
20260505200048 82 166 8.0 12.0 0.00 0.00 0.00 70 1008.8
20260505194547 82 100 4.0 9.0 0.00 0.00 0.00 72 1009.1
20260505193045 81 137 6.0 12.0 0.00 0.00 0.00 74 1009.1
20260505191551 80 117 5.0 14.0 0.00 0.00 0.00 75 1009.2
20260505190046 80 121 6.0 14.0 0.00 0.00 0.00 75 1009.4
20260505184552 79 131 6.0 13.0 0.00 0.00 0.00 76 1009.6
20260505183048 79 113 3.0 10.0 0.00 0.00 0.00 76 1009.9
20260505181544 78 130 6.0 12.0 0.00 0.00 0.00 78 1010.1
20260505180048 77 87 6.0 11.0 0.00 0.00 0.00 80 1010.2
20260505174543 76 120 5.0 11.0 0.00 0.00 0.00 81 1010.5
20260505173047 75 133 4.0 10.0 0.00 0.00 0.00 84 1010.7
20260505171547 73 163 4.0 10.0 0.00 0.00 0.00 84 1010.7
20260505170047 73 123 5.0 11.0 0.00 0.00 0.00 85 1010.6
20260505164548 72 132 6.0 11.0 0.00 0.00 0.00 87 1010.6
20260505163043 71 95 6.0 13.0 0.00 0.00 0.00 88 1010.6
20260505161543 71 111 3.0 11.0 0.00 0.00 0.00 90 1010.4
20260505153051 69 92 3.0 9.0 0.00 0.00 0.00 93 1010.4
20260505151547 68 109 6.0 11.0 0.00 0.00 0.00 93 1010.4
20260505124546 67 119 6.0 12.0 0.00 0.00 0.00 96 1009.8
20260505123045 67 100 6.0 14.0 0.00 0.00 0.00 96 1009.6
20260505121548 67 85 6.0 12.0 0.00 0.00 0.00 95 1009.5
20260505120040 67 129 4.0 13.0 0.00 0.00 0.00 95 1009.3
20260505114548 67 89 6.0 13.0 0.00 0.00 0.00 95 1009.2
20260505113052 67 117 4.0 10.0 0.00 0.00 0.00 94 1008.9
20260505111548 67 114 5.0 9.0 0.00 0.00 0.00 94 1008.9
20260505101554 67 155 4.0 14.0 0.00 0.00 0.00 94 1008.9
20260505100047 67 54 5.0 12.0 0.00 0.00 0.00 94 1009.1
20260505094559 67 129 6.0 13.0 0.00 0.00 0.00 94 1009.1
20260505093053 67 80 5.0 11.0 0.00 0.00 0.00 93 1009.3
20260505091545 67 113 4.0 11.0 0.00 0.00 0.00 93 1009.2
20260505090057 68 86 4.0 12.0 0.00 0.00 0.00 93 1009.3
20260505084541 68 136 5.0 13.0 0.00 0.00 0.00 93 1009.4
20260505083102 68 94 5.0 14.0 0.00 0.00 0.00 93 1009.5
20260505081547 68 61 6.0 14.0 0.00 0.00 0.00 93 1009.6
20260505080046 68 96 6.0 15.0 0.00 0.00 0.00 92 1009.7
20260505074545 68 71 7.0 15.0 0.00 0.00 0.00 92 1009.8
20260505073051 68 101 6.0 15.0 0.00 0.00 0.00 92 1010.0
20260505071548 68 111 5.0 12.0 0.00 0.00 0.00 91 1010.2
20260505070100 68 64 6.0 15.0 0.00 0.00 0.00 91 1010.3
20260505064554 68 98 5.0 12.0 0.00 0.00 0.00 91 1010.4
20260505063044 68 78 3.0 11.0 0.00 0.00 0.00 90 1010.7
20260505061608 68 92 3.0 8.0 0.00 0.00 0.00 90 1010.7
20260505060048 69 96 4.0 12.0 0.00 0.00 0.00 89 1010.8
20260505054547 69 74 2.0 11.0 0.00 0.00 0.00 88 1010.7
20260505053048 68 78 2.0 9.0 0.00 0.00 0.00 87 1010.7
20260505051547 69 80 3.0 10.0 0.00 0.00 0.00 86 1010.9
20260505041555 70 110 2.0 7.0 0.00 0.00 0.00 82 1010.8
20260505040059 70 94 2.0 6.0 0.00 0.00 0.00 82 1010.8
20260505034544 70 76 2.0 12.0 0.00 0.00 0.00 82 1010.6
20260505033041 70 59 2.0 9.0 0.00 0.00 0.00 82 1010.6